This demonstration page uses our WeatherBlox Daily Observations layout. Learn more.

38.89511, -77.03637

Hourly Observations for October 12, 2018

Temp ( °F °C ) Dew Point ( °F °C ) Humidity (%) Winds ( mph kmh ) Pressure ( in mb ) Visibility ( mi km ) Precip ( " mm )
12:52 am 00:52 Cloudy 70 21.1 63 17.2 79 79 NNW 25 41 29.52 1000 10 16.0934 0.01 0.254
1:52 am 01:52 Mostly Cloudy 67 19.4 54 12.2 63 63 NW 24 39 29.55 1001 10 16.0934 0 0
2:52 am 02:52 Mostly Clear 64 17.8 51 10.6 63 63 NW 22 35 29.6 1002 10 16.0934 0 0
3:52 am 03:52 Clear 61 16.1 47 8.3 60 60 NNW 26 43 29.63 1004 10 16.0934 0 0
4:52 am 04:52 Clear 60 15.6 46 7.8 60 60 NNW 17 28 29.67 1005 10 16.0934 0 0
5:52 am 05:52 Mostly Clear 59 15 45 7.2 60 60 NNW 10 17 29.71 1006 10 16.0934 0 0
6:52 am 06:52 Partly Cloudy 58 14.4 44 6.7 60 60 NNW 18 30 29.74 1007 10 16.0934 0 0
7:52 am 07:52 Mostly Sunny 58 14.4 43 6.1 58 58 NW 15 24 29.77 1008 10 16.0934 0 0
8:52 am 08:52 Mostly Sunny 59 15 42 5.6 54 54 NW 21 33 29.79 1009 10 16.0934 0 0
9:52 am 09:52 Partly Cloudy 61 16.1 43 6.1 52 52 NW 17 28 29.8 1009 10 16.0934 0 0
10:52 am 10:52 Partly Cloudy 62 16.7 44 6.7 52 52 NNW 24 39 29.81 1010 10 16.0934 0 0
11:52 am 11:52 Partly Cloudy 64 17.8 43 6.1 46 46 NW 15 24 29.82 1010 10 16.0934 0 0
12:52 pm 12:52 Mostly Sunny 64 17.8 42 5.6 45 45 NW 14 22 29.82 1010 10 16.0934 0 0
1:52 pm 13:52 Mostly Sunny 65 18.3 42 5.6 43 43 NNW 20 31 29.8 1009 10 16.0934 0 0
2:52 pm 14:52 Mostly Sunny 65 18.3 42 5.6 43 43 NW 17 28 29.79 1009 10 16.0934 0 0
3:52 pm 15:52 Partly Cloudy 65 18.3 41 5 42 42 WNW 14 22 29.79 1009 10 16.0934 0 0
4:52 pm 16:52 Partly Cloudy 65 18.3 41 5 42 42 NNW 10 17 29.79 1009 10 16.0934 0 0
5:52 pm 17:52 Partly Cloudy 63 17.2 40 4.4 43 43 NNW 10 17 29.81 1010 10 16.0934 0 0
6:52 pm 18:52 Partly Cloudy 60 15.6 40 4.4 47 47 N 9 15 29.82 1010 10 16.0934 0 0
7:52 pm 19:52 Partly Cloudy 59 15 41 5 51 51 N 8 13 29.84 1010 10 16.0934 0 0
8:52 pm 20:52 Partly Cloudy 57 13.9 42 5.6 58 58 N 8 13 29.85 1011 10 16.0934 0 0
9:52 pm 21:52 Partly Cloudy 56 13.3 43 6.1 62 62 NNW 8 13 29.84 1011 10 16.0934 0 0
10:52 pm 22:52 Partly Cloudy 55 12.8 41 5 59 59 N 9 15 29.86 1011 10 16.0934 0 0
11:52 pm 23:52 Cloudy 55 12.8 40 4.4 57 57 NNW 8 13 29.85 1011 10 16.0934 0 0

Powered by AerisWeather